Regional Weather Roundup
Issued by NWS

Home | Current Version | Previous Version | Graphics & Text | Print | Product List | Glossary On
Versions: 1 2 3 4 5 6 7 8 9 10 11 12 13 14 15 16 17 18 19 20 21 22 23 24 25 26 27 28 29 30 31 32 33 34 35 36 37 38 39 40 41 42 43 44 45 46 47 48 49 50
000
ASUS43 KLMK 181110
RWRKY
KENTUCKY REGIONAL WEATHER ROUNDUP
NATIONAL WEATHER SERVICE LOUISVILLE KY
700 AM EDT THU SEP 18 2014

NOTE "FAIR" INDICATES FEW OR NO CLOUDS BELOW 12,000 FEET
WITH NO SIGNIFICANT WEATHER AND/OR OBSTRUCTIONS TO VISIBILITY.

KYZ001>023-026-027-061>063-070>075-181200-
WESTERN AND SOUTH CENTRAL KENTUCKY

CITY           SKY/WX    TMP DP  RH WIND       PRES   REMARKS
PADUCAH        CLOUDY    65  60  84 CALM      29.97S
HENDERSON      MOCLDY    59  52  77 E3        30.01S
OWENSBORO      CLOUDY    62  54  75 E7        30.01R
HOPKINSVILLE   PTCLDY    60  60 100 E1        29.99R
BOWLING GREEN  CLEAR     54  53  97 CALM      30.01R
GLASGOW        CLOUDY    58  57  99 CALM      30.00R
$$

KYZ024-025-028>034-038-045-046-053-181200-
NORTH CENTRAL KENTUCKY

CITY           SKY/WX    TMP DP  RH WIND       PRES   REMARKS
LOUISVILLE/SDF MOCLDY    58  53  84 N3        30.02R
LOUISVILLE/LOU CLOUDY   N/A N/A N/A N3        30.03R
FORT KNOX      CLOUDY    58  53  84 NE6       30.01R
$$

KYZ035>037-039>044-047>052-055>060-089>105-181200-
NORTHEAST KENTUCKY

CITY           SKY/WX    TMP DP  RH WIND       PRES   REMARKS
LEXINGTON      CLOUDY    58  51  78 NE6       30.03S
COVINGTON      CLEAR     53  48  83 CALM      30.04R
FRANKFORT      MOCLDY    53  52  96 CALM      30.01F
$$

KYZ054-064>069-076>088-106>120-181200-
SOUTHEAST KENTUCKY

CITY           SKY/WX    TMP DP  RH WIND       PRES   REMARKS
JACKSON        CLOUDY    54  51  90 CALM      30.03R
LONDON         PTCLDY    57  54  89 CALM      30.02S
SOMERSET       NOT AVBL
MIDDLESBORO    CLOUDY    56  56  99 CALM      30.02S
MONTICELLO     MOSUNNY   56  55  96 CALM      30.03R FOG
$$



USA.gov is the U.S. government's official web portal to all federal, state and local government web resources and services.